Location: Newark
(52.4787°S, 179.0532°W)
Time: 22:27:55
(UTC+00:00)

deb Explorer IX - All Passes

Search period start: 17 November 2019 00:00
Search period end: 27 November 2019 00:00
Orbit: 546 x 1105 km, 38.8° (Epoch: 16 November)

Date Brightness Start Highest point End Pass type
(mag) Time Alt. Az. Time Alt. Az. Time Alt. Az.
17 Nov - 02:04:46 10° N 02:07:46 15° NNE 02:10:58 10° NE daylight
17 Nov - 03:49:07 10° NW 03:53:36 23° N 03:58:35 10° NE daylight
17 Nov - 05:35:15 10° WNW 05:39:43 20° NNW 05:44:33 10° NNE daylight
17 Nov - 07:24:40 10° NW 07:25:38 10° NNW 07:26:37 10° NNW daylight
18 Nov - 01:42:59 10° N 01:45:46 14° NNE 01:48:45 10° NE daylight
18 Nov - 03:27:17 10° NW 03:31:35 22° N 03:36:22 10° NE daylight
18 Nov - 05:13:24 10° WNW 05:17:40 19° NNW 05:22:17 10° NNE daylight
19 Nov - 01:21:13 10° N 01:23:47 14° NNE 01:26:31 10° NE daylight
19 Nov - 03:05:27 10° NW 03:09:34 21° N 03:14:09 10° NE daylight
19 Nov - 04:51:35 10° NW 04:55:38 19° NNW 05:00:02 10° NNE daylight
20 Nov - 00:59:28 10° N 01:01:49 13° NNE 01:04:18 10° NE daylight
20 Nov - 02:43:39 10° NW 02:47:35 20° N 02:51:56 10° NE daylight
20 Nov - 04:29:46 10° NW 04:33:36 18° NNW 04:37:45 10° NNE daylight
21 Nov - 00:37:44 10° N 00:39:50 13° NNE 00:42:04 10° NE daylight
21 Nov - 02:21:52 10° NW 02:25:36 20° N 02:29:43 10° NE daylight
21 Nov - 04:08:00 10° NW 04:11:35 17° NNW 04:15:28 10° NNE daylight
22 Nov - 00:16:01 10° N 00:17:53 12° NNE 00:19:50 10° NE daylight
22 Nov - 02:00:04 10° NW 02:03:37 19° N 02:07:30 10° NE daylight
22 Nov - 03:46:15 10° NW 03:49:34 16° NNW 03:53:10 10° NNE daylight
22 Nov - 23:54:20 10° N 23:55:56 12° NNE 23:57:36 10° NE daylight
23 Nov - 01:38:18 10° NW 01:41:38 18° N 01:45:18 10° NE daylight
23 Nov - 03:24:30 10° NW 03:27:34 15° NNW 03:30:52 10° NNE daylight
23 Nov - 23:32:39 10° N 23:33:59 11° NNE 23:35:22 10° NE daylight
24 Nov - 01:16:31 10° NW 01:19:41 17° N 01:23:07 10° NE daylight
24 Nov - 03:02:48 10° NW 03:05:35 14° NNW 03:08:33 10° NNE daylight
24 Nov - 23:10:59 10° N 23:12:03 11° NNE 23:13:07 10° NE daylight
25 Nov - 00:54:46 10° NW 00:57:43 17° N 01:00:56 10° NE daylight
25 Nov - 02:41:07 10° NW 02:43:36 14° NNW 02:46:14 10° NNE daylight
25 Nov - 22:49:22 10° N 22:50:06 10° NNE 22:50:50 10° NNE daylight
26 Nov - 00:33:00 10° NW 00:35:47 16° N 00:38:45 10° NE daylight
26 Nov - 02:19:29 10° NW 02:21:37 13° NNW 02:23:53 10° N daylight
26 Nov - 22:27:55 10° NNE 22:28:10 10° NNE 22:28:24 10° NNE daylight
